Time,TemperatureF,DewpointF,PressureIn,WindDirection,WindDirectionDegrees,WindSpeedMPH,WindSpeedGustMPH,Humidity,HourlyPrecipIn,Conditions,Clouds,dailyrainin,SoftwareType,DateUTC
2013-11-08 00:01:00,36.4,23.0,29.39,WSW,247,0.0,7.0,59,0.00,,,0.00,Rainwise IP-100,2013-11-08 05:01:00,
2013-11-08 00:02:00,36.3,23.0,29.39,NNW,337,7.0,7.0,59,0.00,,,0.00,Rainwise IP-100,2013-11-08 05:02:00,
2013-11-08 00:03:00,36.2,23.0,29.39,NNE,22,4.7,7.0,59,0.00,,,0.00,Rainwise IP-100,2013-11-08 05:03:00,
2013-11-08 00:04:00,36.2,23.0,29.39,NNE,22,2.6,7.0,59,0.00,,,0.00,Rainwise IP-100,2013-11-08 05:04:00,
2013-11-08 00:09:00,36.0,23.0,29.39,NW,315,2.3,4.0,59,0.00,,,0.00,Rainwise IP-100,2013-11-08 05:09:00,
2013-11-08 00:15:00,35.8,23.0,29.40,West,270,1.2,4.0,59,0.00,,,0.00,Rainwise IP-100,2013-11-08 05:15:00,
2013-11-08 00:20:00,35.7,24.0,29.40,West,270,2.3,3.0,60,0.00,,,0.00,Rainwise IP-100,2013-11-08 05:20:00,
2013-11-08 00:25:00,35.4,23.0,29.39,West,270,0.0,2.0,60,0.00,,,0.00,Rainwise IP-100,2013-11-08 05:25:00,
2013-11-08 00:30:00,35.0,23.0,29.39,West,270,0.0,1.0,62,0.00,,,0.00,Rainwise IP-100,2013-11-08 05:30:00,
2013-11-08 00:35:00,34.6,24.0,29.39,West,270,1.6,2.0,63,0.00,,,0.00,Rainwise IP-100,2013-11-08 05:35:00,
2013-11-08 00:40:00,34.4,24.0,29.39,WNW,292,1.6,3.0,63,0.00,,,0.00,Rainwise IP-100,2013-11-08 05:40:00,
2013-11-08 00:45:00,34.3,24.0,29.39,WNW,292,0.0,1.0,63,0.00,,,0.00,Rainwise IP-100,2013-11-08 05:45:00,
2013-11-08 00:50:00,33.9,24.0,29.39,WNW,292,0.0,1.0,65,0.00,,,0.00,Rainwise IP-100,2013-11-08 05:50:00,
2013-11-08 00:55:00,33.4,24.0,29.38,West,270,1.6,2.0,67,0.00,,,0.00,Rainwise IP-100,2013-11-08 05:55:00,
2013-11-08 01:00:00,33.1,24.0,29.38,West,270,2.3,2.3,68,0.00,,,0.00,Rainwise IP-100,2013-11-08 06:00:00,
2013-11-08 01:05:00,33.1,24.0,29.39,West,270,1.2,2.0,68,0.00,,,0.00,Rainwise IP-100,2013-11-08 06:05:00,
2013-11-08 01:10:00,33.1,24.0,29.38,West,270,1.9,2.0,67,0.00,,,0.00,Rainwise IP-100,2013-11-08 06:10:00,
2013-11-08 01:15:00,33.2,24.0,29.38,West,270,1.2,2.0,67,0.00,,,0.00,Rainwise IP-100,2013-11-08 06:15:00,
2013-11-08 01:20:00,33.2,24.0,29.38,West,270,1.6,2.0,67,0.00,,,0.00,Rainwise IP-100,2013-11-08 06:20:00,
2013-11-08 01:25:00,32.9,24.0,29.38,West,270,0.0,1.0,68,0.00,,,0.00,Rainwise IP-100,2013-11-08 06:25:00,
2013-11-08 01:31:00,32.2,24.0,29.39,West,270,0.0,1.0,70,0.00,,,0.00,Rainwise IP-100,2013-11-08 06:31:00,
2013-11-08 01:36:00,31.5,24.0,29.39,West,270,0.0,1.0,72,0.00,,,0.00,Rainwise IP-100,2013-11-08 06:36:00,
2013-11-08 01:41:00,31.1,24.0,29.39,West,270,0.0,1.0,74,0.00,,,0.00,Rainwise IP-100,2013-11-08 06:41:00,
2013-11-08 01:46:00,30.8,24.0,29.39,West,270,0.0,1.0,76,0.00,,,0.00,Rainwise IP-100,2013-11-08 06:46:00,
2013-11-08 01:51:00,30.5,24.0,29.39,West,270,0.0,1.0,77,0.00,,,0.00,Rainwise IP-100,2013-11-08 06:51:00,
2013-11-08 01:56:00,30.1,24.0,29.38,West,270,0.0,0.0,78,0.00,,,0.00,Rainwise IP-100,2013-11-08 06:56:00,
2013-11-08 02:01:00,29.6,24.0,29.38,West,270,0.0,0.0,79,0.00,,,0.00,Rainwise IP-100,2013-11-08 07:01:00,
2013-11-08 02:06:00,29.2,24.0,29.38,North,360,3.7,4.0,80,0.00,,,0.00,Rainwise IP-100,2013-11-08 07:06:00,
2013-11-08 02:11:00,28.9,24.0,29.39,NW,315,2.1,4.0,81,0.00,,,0.00,Rainwise IP-100,2013-11-08 07:11:00,
2013-11-08 02:16:00,29.1,24.0,29.38,NW,315,0.0,2.0,81,0.00,,,0.00,Rainwise IP-100,2013-11-08 07:16:00,
2013-11-08 02:21:00,29.2,24.0,29.38,NW,315,0.0,1.0,81,0.00,,,0.00,Rainwise IP-100,2013-11-08 07:21:00,
2013-11-08 02:26:00,28.9,24.0,29.38,NW,315,0.0,0.0,82,0.00,,,0.00,Rainwise IP-100,2013-11-08 07:26:00,
2013-11-08 02:31:00,28.6,24.0,29.38,NW,315,0.0,0.0,83,0.00,,,0.00,Rainwise IP-100,2013-11-08 07:31:00,
2013-11-08 02:36:00,28.5,24.0,29.38,NW,315,1.4,0.0,84,0.00,,,0.00,Rainwise IP-100,2013-11-08 07:36:00,
2013-11-08 02:41:00,28.4,24.0,29.38,NW,315,0.0,3.0,84,0.00,,,0.00,Rainwise IP-100,2013-11-08 07:41:00,
2013-11-08 02:47:00,28.4,24.0,29.38,NW,315,0.0,0.0,84,0.00,,,0.00,Rainwise IP-100,2013-11-08 07:47:00,
2013-11-08 02:52:00,28.3,24.0,29.38,West,270,0.0,1.0,84,0.00,,,0.00,Rainwise IP-100,2013-11-08 07:52:00,
2013-11-08 02:57:00,28.1,24.0,29.38,West,270,1.4,2.0,84,0.00,,,0.00,Rainwise IP-100,2013-11-08 07:57:00,
2013-11-08 03:02:00,28.0,24.0,29.38,West,270,0.0,1.0,85,0.00,,,0.00,Rainwise IP-100,2013-11-08 08:02:00,
2013-11-08 03:07:00,27.7,24.0,29.38,NNW,337,2.8,3.0,85,0.00,,,0.00,Rainwise IP-100,2013-11-08 08:07:00,
2013-11-08 03:12:00,27.4,24.0,29.39,NNW,337,0.0,3.0,86,0.00,,,0.00,Rainwise IP-100,2013-11-08 08:12:00,
2013-11-08 03:17:00,27.4,24.0,29.39,NNW,337,0.0,0.0,86,0.00,,,0.00,Rainwise IP-100,2013-11-08 08:17:00,
2013-11-08 03:22:00,27.8,24.0,29.38,NNW,337,0.0,0.0,86,0.00,,,0.00,Rainwise IP-100,2013-11-08 08:22:00,
2013-11-08 03:27:00,27.8,24.0,29.38,NNW,337,0.0,0.0,86,0.00,,,0.00,Rainwise IP-100,2013-11-08 08:27:00,
2013-11-08 03:32:00,27.6,24.0,29.39,WSW,247,2.6,2.6,87,0.00,,,0.00,Rainwise IP-100,2013-11-08 08:32:00,
2013-11-08 03:37:00,27.6,24.0,29.39,WSW,247,1.2,2.0,87,0.00,,,0.00,Rainwise IP-100,2013-11-08 08:37:00,
2013-11-08 03:42:00,27.6,24.0,29.39,WSW,247,0.0,1.0,87,0.00,,,0.00,Rainwise IP-100,2013-11-08 08:42:00,
2013-11-08 03:47:00,27.8,24.0,29.38,WSW,247,1.2,1.2,88,0.00,,,0.00,Rainwise IP-100,2013-11-08 08:47:00,
2013-11-08 03:52:00,27.9,24.0,29.39,WSW,247,1.6,1.6,88,0.00,,,0.00,Rainwise IP-100,2013-11-08 08:52:00,
2013-11-08 03:57:00,27.6,24.0,29.39,WSW,247,0.0,1.0,88,0.00,,,0.00,Rainwise IP-100,2013-11-08 08:57:00,
2013-11-08 04:03:00,27.4,24.0,29.39,WSW,247,0.0,0.0,88,0.00,,,0.00,Rainwise IP-100,2013-11-08 09:03:00,
2013-11-08 04:08:00,27.2,24.0,29.39,WSW,247,0.0,0.0,89,0.00,,,0.00,Rainwise IP-100,2013-11-08 09:08:00,
2013-11-08 04:13:00,27.0,24.0,29.40,WSW,247,0.0,0.0,89,0.00,,,0.00,Rainwise IP-100,2013-11-08 09:13:00,
2013-11-08 04:18:00,26.9,26.0,29.40,WSW,247,0.0,0.0,90,0.00,,,0.00,Rainwise IP-100,2013-11-08 09:18:00,
2013-11-08 04:23:00,26.6,26.0,29.40,WSW,247,0.0,0.0,90,0.00,,,0.00,Rainwise IP-100,2013-11-08 09:23:00,
2013-11-08 04:28:00,26.7,26.0,29.39,WSW,247,0.0,1.0,90,0.00,,,0.00,Rainwise IP-100,2013-11-08 09:28:00,
2013-11-08 04:33:00,26.9,24.0,29.39,WSW,247,0.0,0.0,89,0.00,,,0.00,Rainwise IP-100,2013-11-08 09:33:00,
2013-11-08 04:38:00,26.9,24.0,29.39,WSW,247,0.0,1.0,89,0.00,,,0.00,Rainwise IP-100,2013-11-08 09:38:00,
2013-11-08 04:43:00,26.5,24.0,29.38,WSW,247,0.0,0.0,89,0.00,,,0.00,Rainwise IP-100,2013-11-08 09:43:00,
2013-11-08 04:48:00,26.2,23.0,29.39,WSW,247,0.0,0.0,89,0.00,,,0.00,Rainwise IP-100,2013-11-08 09:48:00,
2013-11-08 04:53:00,26.1,24.0,29.39,WSW,247,0.0,0.0,90,0.00,,,0.00,Rainwise IP-100,2013-11-08 09:53:00,
2013-11-08 04:58:00,26.3,24.0,29.39,NW,315,2.8,0.0,90,0.00,,,0.00,Rainwise IP-100,2013-11-08 09:58:00,
2013-11-08 05:03:00,26.3,24.0,29.39,NNW,337,0.0,3.0,90,0.00,,,0.00,Rainwise IP-100,2013-11-08 10:03:00,
2013-11-08 05:08:00,26.0,24.0,29.39,NNW,337,0.0,0.0,90,0.00,,,0.00,Rainwise IP-100,2013-11-08 10:08:00,
2013-11-08 05:13:00,25.8,24.0,29.39,NNW,337,0.0,0.0,90,0.00,,,0.00,Rainwise IP-100,2013-11-08 10:13:00,
2013-11-08 05:19:00,25.9,24.0,29.39,SW,225,2.6,3.0,91,0.00,,,0.00,Rainwise IP-100,2013-11-08 10:19:00,
2013-11-08 05:24:00,26.1,24.0,29.39,SW,225,0.0,2.0,91,0.00,,,0.00,Rainwise IP-100,2013-11-08 10:24:00,
2013-11-08 05:29:00,26.1,24.0,29.39,SW,225,0.0,0.0,91,0.00,,,0.00,Rainwise IP-100,2013-11-08 10:29:00,
2013-11-08 05:34:00,26.2,24.0,29.39,SW,225,0.0,0.0,91,0.00,,,0.00,Rainwise IP-100,2013-11-08 10:34:00,
2013-11-08 05:39:00,26.1,24.0,29.39,SW,225,1.4,1.4,92,0.00,,,0.00,Rainwise IP-100,2013-11-08 10:39:00,
2013-11-08 05:44:00,26.2,24.0,29.39,SW,225,0.0,0.0,93,0.00,,,0.00,Rainwise IP-100,2013-11-08 10:44:00,
2013-11-08 05:49:00,26.2,24.0,29.40,SW,225,0.0,0.0,93,0.00,,,0.00,Rainwise IP-100,2013-11-08 10:49:00,
2013-11-08 05:54:00,26.1,24.0,29.40,SW,225,0.0,1.0,93,0.00,,,0.00,Rainwise IP-100,2013-11-08 10:54:00,
2013-11-08 05:59:00,26.4,24.0,29.40,SW,225,0.0,1.0,93,0.00,,,0.00,Rainwise IP-100,2013-11-08 10:59:00,
2013-11-08 06:04:00,26.5,26.0,29.40,SW,225,1.6,1.6,93,0.00,,,0.00,Rainwise IP-100,2013-11-08 11:04:00,
2013-11-08 06:09:00,26.5,26.0,29.40,SW,225,1.4,2.0,93,0.00,,,0.00,Rainwise IP-100,2013-11-08 11:09:00,
2013-11-08 06:14:00,26.6,26.0,29.40,SW,225,0.0,2.0,93,0.00,,,0.00,Rainwise IP-100,2013-11-08 11:14:00,
2013-11-08 06:19:00,26.7,26.0,29.41,SW,225,0.0,0.0,94,0.00,,,0.00,Rainwise IP-100,2013-11-08 11:19:00,
2013-11-08 06:24:00,26.7,26.0,29.41,SW,225,1.6,1.6,94,0.00,,,0.00,Rainwise IP-100,2013-11-08 11:24:00,
2013-11-08 06:29:00,26.7,26.0,29.41,SW,225,0.0,1.0,94,0.00,,,0.00,Rainwise IP-100,2013-11-08 11:29:00,
2013-11-08 06:35:00,26.6,26.0,29.41,SW,225,0.0,1.0,94,0.00,,,0.00,Rainwise IP-100,2013-11-08 11:35:00,
2013-11-08 06:40:00,26.6,26.0,29.41,SW,225,2.6,2.6,94,0.00,,,0.00,Rainwise IP-100,2013-11-08 11:40:00,
2013-11-08 06:45:00,27.0,26.0,29.41,SW,225,1.4,2.0,93,0.00,,,0.00,Rainwise IP-100,2013-11-08 11:45:00,
2013-11-08 06:50:00,27.2,26.0,29.41,SW,225,2.3,2.3,93,0.00,,,0.00,Rainwise IP-100,2013-11-08 11:50:00,
2013-11-08 06:55:00,27.2,26.0,29.41,WSW,247,2.3,4.0,92,0.00,,,0.00,Rainwise IP-100,2013-11-08 11:55:00,
2013-11-08 07:00:00,27.1,26.0,29.42,WSW,247,0.0,2.0,92,0.00,,,0.00,Rainwise IP-100,2013-11-08 12:00:00,
2013-11-08 07:05:00,26.8,26.0,29.42,NNW,337,3.0,3.0,92,0.00,,,0.00,Rainwise IP-100,2013-11-08 12:05:00,
2013-11-08 07:10:00,26.7,26.0,29.42,NW,315,0.0,4.0,92,0.00,,,0.00,Rainwise IP-100,2013-11-08 12:10:00,
2013-11-08 07:15:00,26.7,26.0,29.42,NW,315,0.0,0.0,92,0.00,,,0.00,Rainwise IP-100,2013-11-08 12:15:00,
2013-11-08 07:20:00,26.8,26.0,29.42,NW,315,0.0,0.0,92,0.00,,,0.00,Rainwise IP-100,2013-11-08 12:20:00,
2013-11-08 07:25:00,27.0,26.0,29.42,NNE,22,2.8,3.0,92,0.00,,,0.00,Rainwise IP-100,2013-11-08 12:25:00,
2013-11-08 07:30:00,27.3,26.0,29.42,NNE,22,0.0,3.0,92,0.00,,,0.00,Rainwise IP-100,2013-11-08 12:30:00,
2013-11-08 07:35:00,27.5,26.0,29.41,NNE,22,0.0,1.0,92,0.00,,,0.00,Rainwise IP-100,2013-11-08 12:35:00,
2013-11-08 07:40:00,27.7,26.0,29.43,NNE,22,3.3,3.3,92,0.00,,,0.00,Rainwise IP-100,2013-11-08 12:40:00,
2013-11-08 07:45:00,28.1,26.0,29.43,NNW,337,0.0,4.0,91,0.00,,,0.00,Rainwise IP-100,2013-11-08 12:45:00,
2013-11-08 07:51:00,28.6,26.0,29.43,NNE,22,2.3,3.0,90,0.00,,,0.00,Rainwise IP-100,2013-11-08 12:51:00,
2013-11-08 07:56:00,29.4,26.0,29.43,NNE,22,2.1,2.1,89,0.00,,,0.00,Rainwise IP-100,2013-11-08 12:56:00,
2013-11-08 08:01:00,30.1,28.0,29.44,NNE,22,1.4,2.0,88,0.00,,,0.00,Rainwise IP-100,2013-11-08 13:01:00,
2013-11-08 08:06:00,30.8,28.0,29.44,NNE,22,0.0,1.0,87,0.00,,,0.00,Rainwise IP-100,2013-11-08 13:06:00,
2013-11-08 08:11:00,31.5,29.0,29.44,NNE,22,0.0,0.0,87,0.00,,,0.00,Rainwise IP-100,2013-11-08 13:11:00,
2013-11-08 08:16:00,31.8,29.0,29.44,NNE,22,0.0,1.0,89,0.00,,,0.00,Rainwise IP-100,2013-11-08 13:16:00,
2013-11-08 08:21:00,32.3,29.0,29.45,NNE,22,0.0,1.0,91,0.00,,,0.00,Rainwise IP-100,2013-11-08 13:21:00,
2013-11-08 08:26:00,33.2,31.0,29.44,NNE,22,0.0,0.0,92,0.00,,,0.00,Rainwise IP-100,2013-11-08 13:26:00,
2013-11-08 08:31:00,34.1,33.0,29.44,NNW,337,0.0,0.0,94,0.00,,,0.00,Rainwise IP-100,2013-11-08 13:31:00,
2013-11-08 08:36:00,34.6,32.0,29.45,WSW,247,1.6,3.0,91,0.00,,,0.00,Rainwise IP-100,2013-11-08 13:36:00,
2013-11-08 08:41:00,35.0,32.0,29.45,SSW,202,1.4,4.0,89,0.00,,,0.00,Rainwise IP-100,2013-11-08 13:41:00,
2013-11-08 08:46:00,35.3,32.0,29.44,SSW,202,1.9,4.0,89,0.00,,,0.00,Rainwise IP-100,2013-11-08 13:46:00,
2013-11-08 08:51:00,35.2,31.0,29.44,South,180,2.8,4.0,85,0.00,,,0.00,Rainwise IP-100,2013-11-08 13:51:00,
2013-11-08 08:56:00,35.0,29.0,29.44,South,180,3.7,4.0,82,0.00,,,0.00,Rainwise IP-100,2013-11-08 13:56:00,
2013-11-08 09:01:00,34.7,29.0,29.44,SSW,202,3.0,4.0,81,0.00,,,0.00,Rainwise IP-100,2013-11-08 14:01:00,
2013-11-08 09:07:00,34.6,29.0,29.43,South,180,0.0,4.0,80,0.00,,,0.00,Rainwise IP-100,2013-11-08 14:07:00,
2013-11-08 09:12:00,34.7,31.0,29.43,South,180,1.9,2.0,83,0.00,,,0.00,Rainwise IP-100,2013-11-08 14:12:00,
2013-11-08 09:17:00,34.8,31.0,29.43,South,180,3.0,4.0,84,0.00,,,0.00,Rainwise IP-100,2013-11-08 14:17:00,
2013-11-08 09:22:00,34.9,29.0,29.44,SW,225,2.1,3.0,80,0.00,,,0.00,Rainwise IP-100,2013-11-08 14:22:00,
2013-11-08 09:27:00,35.1,29.0,29.43,SSW,202,3.5,5.0,79,0.00,,,0.00,Rainwise IP-100,2013-11-08 14:27:00,
2013-11-08 09:32:00,35.2,29.0,29.44,SSW,202,3.5,4.0,78,0.00,,,0.00,Rainwise IP-100,2013-11-08 14:32:00,
2013-11-08 09:37:00,35.4,28.0,29.43,South,180,1.9,5.0,77,0.00,,,0.00,Rainwise IP-100,2013-11-08 14:37:00,
2013-11-08 09:42:00,35.5,29.0,29.44,South,180,0.0,4.0,77,0.00,,,0.00,Rainwise IP-100,2013-11-08 14:42:00,
2013-11-08 09:47:00,35.6,31.0,29.44,South,180,0.0,2.0,79,0.00,,,0.00,Rainwise IP-100,2013-11-08 14:47:00,
2013-11-08 09:52:00,35.8,31.0,29.44,SE,135,0.0,1.0,82,0.00,,,0.00,Rainwise IP-100,2013-11-08 14:52:00,
2013-11-08 09:57:00,36.1,32.0,29.44,SSW,202,2.8,3.0,84,0.00,,,0.00,Rainwise IP-100,2013-11-08 14:57:00,
2013-11-08 10:02:00,36.3,31.0,29.44,SSW,202,2.1,3.0,80,0.00,,,0.00,Rainwise IP-100,2013-11-08 15:02:00,
2013-11-08 10:07:00,36.3,29.0,29.44,South,180,2.3,2.3,77,0.00,,,0.00,Rainwise IP-100,2013-11-08 15:07:00,
2013-11-08 10:12:00,36.5,31.0,29.43,South,180,0.0,2.0,77,0.00,,,0.00,Rainwise IP-100,2013-11-08 15:12:00,
2013-11-08 10:17:00,36.7,31.0,29.44,SSW,202,1.4,1.4,78,0.00,,,0.00,Rainwise IP-100,2013-11-08 15:17:00,
2013-11-08 10:23:00,37.0,32.0,29.43,SSW,202,0.0,2.0,80,0.00,,,0.00,Rainwise IP-100,2013-11-08 15:23:00,
2013-11-08 10:28:00,37.2,32.0,29.43,North,360,0.0,0.0,81,0.00,,,0.00,Rainwise IP-100,2013-11-08 15:28:00,
2013-11-08 10:33:00,37.4,32.0,29.43,NNE,22,1.2,1.2,82,0.00,,,0.00,Rainwise IP-100,2013-11-08 15:33:00,
2013-11-08 10:38:00,37.2,31.0,29.43,NNE,22,2.3,2.3,79,0.00,,,0.00,Rainwise IP-100,2013-11-08 15:38:00,
2013-11-08 10:43:00,37.2,31.0,29.43,NNE,22,0.0,2.0,76,0.00,,,0.00,Rainwise IP-100,2013-11-08 15:43:00,
2013-11-08 10:48:00,37.6,31.0,29.43,NNE,22,0.0,2.0,76,0.00,,,0.00,Rainwise IP-100,2013-11-08 15:48:00,
2013-11-08 10:53:00,37.9,31.0,29.43,NNE,22,2.1,2.1,76,0.00,,,0.00,Rainwise IP-100,2013-11-08 15:53:00,
2013-11-08 10:58:00,38.0,31.0,29.43,NNE,22,0.0,2.0,74,0.00,,,0.00,Rainwise IP-100,2013-11-08 15:58:00,
2013-11-08 11:03:00,38.1,31.0,29.43,NE,45,2.3,3.0,72,0.00,,,0.00,Rainwise IP-100,2013-11-08 16:03:00,
2013-11-08 11:08:00,38.2,29.0,29.43,NE,45,2.6,3.0,71,0.00,,,0.00,Rainwise IP-100,2013-11-08 16:08:00,
2013-11-08 11:13:00,38.5,31.0,29.42,NNE,22,1.4,3.0,70,0.00,,,0.00,Rainwise IP-100,2013-11-08 16:13:00,
2013-11-08 11:18:00,38.8,31.0,29.42,NNE,22,0.0,3.0,69,0.00,,,0.00,Rainwise IP-100,2013-11-08 16:18:00,
2013-11-08 11:23:00,39.0,31.0,29.42,East,90,1.4,2.0,69,0.00,,,0.00,Rainwise IP-100,2013-11-08 16:23:00,
2013-11-08 11:28:00,39.1,31.0,29.42,NE,45,0.0,3.0,69,0.00,,,0.00,Rainwise IP-100,2013-11-08 16:28:00,
2013-11-08 11:33:00,39.2,31.0,29.42,NE,45,0.0,2.0,69,0.00,,,0.00,Rainwise IP-100,2013-11-08 16:33:00,
2013-11-08 11:39:00,39.2,31.0,29.42,ESE,112,1.6,0.0,70,0.00,,,0.00,Rainwise IP-100,2013-11-08 16:39:00,
2013-11-08 11:44:00,39.4,31.0,29.42,ESE,112,0.0,3.0,70,0.00,,,0.00,Rainwise IP-100,2013-11-08 16:44:00,
2013-11-08 11:49:00,39.6,31.0,29.42,SSW,202,0.0,2.0,69,0.00,,,0.00,Rainwise IP-100,2013-11-08 16:49:00,
2013-11-08 11:54:00,39.7,31.0,29.42,SSW,202,0.0,3.0,68,0.00,,,0.00,Rainwise IP-100,2013-11-08 16:54:00,
2013-11-08 11:59:00,39.7,31.0,29.41,WSW,247,1.6,7.0,68,0.00,,,0.00,Rainwise IP-100,2013-11-08 16:59:00,
2013-11-08 12:04:00,39.4,29.0,29.42,NNE,22,1.6,5.0,68,0.00,,,0.00,Rainwise IP-100,2013-11-08 17:04:00,
2013-11-08 12:09:00,39.0,31.0,29.41,SE,135,0.0,3.0,69,0.00,,,0.00,Rainwise IP-100,2013-11-08 17:09:00,
2013-11-08 12:14:00,38.5,31.0,29.42,NNW,337,0.0,5.0,72,0.00,,,0.00,Rainwise IP-100,2013-11-08 17:14:00,
2013-11-08 12:19:00,38.0,31.0,29.42,SSW,202,4.7,6.0,74,0.00,,,0.00,Rainwise IP-100,2013-11-08 17:19:00,
2013-11-08 12:24:00,36.9,31.0,29.42,SW,225,1.2,7.0,79,0.00,,,0.00,Rainwise IP-100,2013-11-08 17:24:00,
2013-11-08 12:29:00,36.1,31.0,29.42,South,180,2.3,4.0,82,0.00,,,0.00,Rainwise IP-100,2013-11-08 17:29:00,
2013-11-08 12:34:00,35.7,32.0,29.42,SSW,202,0.0,4.0,85,0.06,,,0.01,Rainwise IP-100,2013-11-08 17:34:00,
2013-11-08 12:39:00,35.4,31.0,29.43,SSW,202,1.4,2.0,86,0.06,,,0.01,Rainwise IP-100,2013-11-08 17:39:00,
2013-11-08 12:44:00,35.0,32.0,29.42,SSW,202,1.4,1.4,88,0.06,,,0.02,Rainwise IP-100,2013-11-08 17:44:00,
2013-11-08 12:49:00,34.7,32.0,29.42,South,180,0.0,2.0,89,0.06,,,0.02,Rainwise IP-100,2013-11-08 17:49:00,
2013-11-08 12:55:00,34.9,32.0,29.42,South,180,1.2,1.2,89,0.00,,,0.02,Rainwise IP-100,2013-11-08 17:55:00,
2013-11-08 13:00:00,35.2,32.0,29.42,South,180,1.9,2.0,89,0.00,,,0.02,Rainwise IP-100,2013-11-08 18:00:00,
2013-11-08 13:05:00,35.5,33.0,29.42,South,180,0.0,2.0,90,0.00,,,0.02,Rainwise IP-100,2013-11-08 18:05:00,
2013-11-08 13:10:00,35.6,33.0,29.43,North,360,0.0,3.0,90,0.00,,,0.02,Rainwise IP-100,2013-11-08 18:10:00,
2013-11-08 13:15:00,36.0,33.0,29.43,NNE,22,2.8,3.0,90,0.00,,,0.02,Rainwise IP-100,2013-11-08 18:15:00,
2013-11-08 13:20:00,36.4,33.0,29.43,ENE,67,1.4,4.0,89,0.00,,,0.02,Rainwise IP-100,2013-11-08 18:20:00,
2013-11-08 13:25:00,36.6,35.0,29.43,ENE,67,0.0,3.0,89,0.00,,,0.02,Rainwise IP-100,2013-11-08 18:25:00,
2013-11-08 13:30:00,36.7,35.0,29.43,ENE,67,0.0,0.0,90,0.00,,,0.02,Rainwise IP-100,2013-11-08 18:30:00,
2013-11-08 13:35:00,37.0,35.0,29.44,ENE,67,0.0,0.0,91,0.00,,,0.02,Rainwise IP-100,2013-11-08 18:35:00,
2013-11-08 13:40:00,37.2,35.0,29.44,NNW,337,1.9,4.0,90,0.00,,,0.02,Rainwise IP-100,2013-11-08 18:40:00,
2013-11-08 13:45:00,37.3,35.0,29.44,NNW,337,1.9,4.0,89,0.00,,,0.02,Rainwise IP-100,2013-11-08 18:45:00,
2013-11-08 13:50:00,37.1,33.0,29.44,North,360,4.0,11.0,88,0.06,,,0.03,Rainwise IP-100,2013-11-08 18:50:00,
2013-11-08 13:55:00,36.3,32.0,29.44,ESE,112,1.2,11.0,88,0.06,,,0.03,Rainwise IP-100,2013-11-08 18:55:00,
2013-11-08 14:00:00,35.6,33.0,29.45,ESE,112,1.6,3.0,89,0.00,,,0.03,Rainwise IP-100,2013-11-08 19:00:00,
2013-11-08 14:05:00,35.5,33.0,29.45,SE,135,1.4,4.0,90,0.00,,,0.03,Rainwise IP-100,2013-11-08 19:05:00,
2013-11-08 14:11:00,35.6,33.0,29.45,East,90,1.2,4.0,90,0.00,,,0.03,Rainwise IP-100,2013-11-08 19:11:00,
2013-11-08 14:16:00,35.7,33.0,29.45,East,90,0.0,1.0,90,0.00,,,0.03,Rainwise IP-100,2013-11-08 19:16:00,
2013-11-08 14:21:00,35.9,33.0,29.46,SSE,157,2.8,7.0,90,0.00,,,0.03,Rainwise IP-100,2013-11-08 19:21:00,
2013-11-08 14:26:00,35.9,33.0,29.46,SSE,157,3.5,8.0,89,0.00,,,0.03,Rainwise IP-100,2013-11-08 19:26:00,
2013-11-08 14:31:00,35.8,32.0,29.46,ESE,112,2.8,4.0,88,0.00,,,0.03,Rainwise IP-100,2013-11-08 19:31:00,
2013-11-08 14:36:00,35.7,33.0,29.46,North,360,3.5,5.0,89,0.00,,,0.03,Rainwise IP-100,2013-11-08 19:36:00,
2013-11-08 14:41:00,36.0,33.0,29.46,NNW,337,0.0,6.0,89,0.00,,,0.03,Rainwise IP-100,2013-11-08 19:41:00,
2013-11-08 14:46:00,36.3,33.0,29.46,South,180,1.2,4.0,89,0.00,,,0.03,Rainwise IP-100,2013-11-08 19:46:00,
2013-11-08 14:51:00,36.3,33.0,29.46,SSW,202,4.2,4.2,89,0.00,,,0.03,Rainwise IP-100,2013-11-08 19:51:00,
2013-11-08 14:56:00,36.2,32.0,29.47,West,270,0.0,6.0,88,0.00,,,0.03,Rainwise IP-100,2013-11-08 19:56:00,
2013-11-08 15:01:00,36.0,32.0,29.47,NW,315,0.0,8.0,86,0.00,,,0.03,Rainwise IP-100,2013-11-08 20:01:00,
2013-11-08 15:06:00,35.8,32.0,29.48,WSW,247,1.4,4.0,86,0.00,,,0.03,Rainwise IP-100,2013-11-08 20:06:00,
2013-11-08 15:11:00,35.7,32.0,29.48,SSE,157,0.0,3.0,87,0.00,,,0.03,Rainwise IP-100,2013-11-08 20:11:00,
2013-11-08 15:16:00,35.7,32.0,29.48,South,180,1.2,3.0,87,0.00,,,0.03,Rainwise IP-100,2013-11-08 20:16:00,
2013-11-08 15:21:00,35.7,32.0,29.48,SSW,202,1.2,2.0,86,0.00,,,0.03,Rainwise IP-100,2013-11-08 20:21:00,
2013-11-08 15:27:00,35.6,32.0,29.49,SW,225,3.0,5.0,86,0.00,,,0.03,Rainwise IP-100,2013-11-08 20:27:00,
2013-11-08 15:32:00,35.4,31.0,29.49,SW,225,2.3,6.0,86,0.00,,,0.03,Rainwise IP-100,2013-11-08 20:32:00,
2013-11-08 15:37:00,35.2,31.0,29.49,SW,225,3.7,4.0,87,0.00,,,0.03,Rainwise IP-100,2013-11-08 20:37:00,
2013-11-08 15:42:00,34.9,31.0,29.49,SW,225,0.0,4.0,87,0.00,,,0.03,Rainwise IP-100,2013-11-08 20:42:00,
2013-11-08 15:47:00,34.7,31.0,29.50,SSW,202,1.2,4.0,86,0.00,,,0.03,Rainwise IP-100,2013-11-08 20:47:00,
2013-11-08 15:52:00,34.6,31.0,29.49,SSW,202,1.2,5.0,86,0.00,,,0.03,Rainwise IP-100,2013-11-08 20:52:00,
2013-11-08 15:57:00,34.6,31.0,29.50,SW,225,2.8,3.0,86,0.00,,,0.03,Rainwise IP-100,2013-11-08 20:57:00,
2013-11-08 16:02:00,34.3,31.0,29.49,SW,225,2.8,4.0,86,0.00,,,0.03,Rainwise IP-100,2013-11-08 21:02:00,
2013-11-08 16:07:00,33.9,31.0,29.49,SW,225,2.6,4.0,87,0.00,,,0.03,Rainwise IP-100,2013-11-08 21:07:00,
2013-11-08 16:12:00,33.4,31.0,29.50,SW,225,2.1,3.0,88,0.00,,,0.03,Rainwise IP-100,2013-11-08 21:12:00,
2013-11-08 16:17:00,33.3,31.0,29.50,WSW,247,2.1,2.1,89,0.00,,,0.03,Rainwise IP-100,2013-11-08 21:17:00,
2013-11-08 16:22:00,33.3,31.0,29.50,SSE,157,1.4,6.0,87,0.00,,,0.03,Rainwise IP-100,2013-11-08 21:22:00,
2013-11-08 16:27:00,33.6,31.0,29.51,SSE,157,2.3,4.0,85,0.00,,,0.03,Rainwise IP-100,2013-11-08 21:27:00,
2013-11-08 16:32:00,33.7,31.0,29.51,SSW,202,0.0,4.0,83,0.00,,,0.03,Rainwise IP-100,2013-11-08 21:32:00,
2013-11-08 16:37:00,33.7,29.0,29.52,WSW,247,1.6,6.0,82,0.00,,,0.03,Rainwise IP-100,2013-11-08 21:37:00,
2013-11-08 16:43:00,33.7,29.0,29.52,SW,225,1.6,7.0,82,0.00,,,0.03,Rainwise IP-100,2013-11-08 21:43:00,
2013-11-08 16:48:00,33.8,29.0,29.52,SSW,202,1.9,4.0,82,0.00,,,0.03,Rainwise IP-100,2013-11-08 21:48:00,
2013-11-08 16:53:00,34.0,29.0,29.52,South,180,0.0,4.0,80,0.00,,,0.03,Rainwise IP-100,2013-11-08 21:53:00,
2013-11-08 16:58:00,34.2,29.0,29.52,West,270,0.0,6.0,79,0.00,,,0.03,Rainwise IP-100,2013-11-08 21:58:00,
2013-11-08 17:03:00,34.4,29.0,29.52,WSW,247,0.0,4.0,78,0.00,,,0.03,Rainwise IP-100,2013-11-08 22:03:00,
2013-11-08 17:08:00,34.4,29.0,29.53,SSW,202,3.5,3.5,78,0.00,,,0.03,Rainwise IP-100,2013-11-08 22:08:00,
2013-11-08 17:13:00,34.1,29.0,29.53,SSW,202,0.0,4.0,79,0.00,,,0.03,Rainwise IP-100,2013-11-08 22:13:00,
2013-11-08 17:18:00,33.9,29.0,29.53,SW,225,2.1,3.0,80,0.00,,,0.03,Rainwise IP-100,2013-11-08 22:18:00,
2013-11-08 17:23:00,34.0,29.0,29.54,SW,225,3.3,6.0,80,0.00,,,0.03,Rainwise IP-100,2013-11-08 22:23:00,
2013-11-08 17:28:00,34.0,29.0,29.54,WSW,247,0.0,3.0,80,0.00,,,0.03,Rainwise IP-100,2013-11-08 22:28:00,
2013-11-08 17:33:00,34.1,29.0,29.54,WNW,292,0.0,5.0,78,0.00,,,0.03,Rainwise IP-100,2013-11-08 22:33:00,
2013-11-08 17:38:00,34.2,28.0,29.54,WNW,292,3.3,5.0,77,0.00,,,0.03,Rainwise IP-100,2013-11-08 22:38:00,
2013-11-08 17:43:00,34.2,29.0,29.54,WSW,247,1.4,5.0,78,0.00,,,0.03,Rainwise IP-100,2013-11-08 22:43:00,
2013-11-08 17:48:00,34.2,28.0,29.55,South,180,2.1,4.0,77,0.00,,,0.03,Rainwise IP-100,2013-11-08 22:48:00,
2013-11-08 17:53:00,34.4,28.0,29.55,WSW,247,1.9,4.0,76,0.00,,,0.03,Rainwise IP-100,2013-11-08 22:53:00,
2013-11-08 17:59:00,34.5,28.0,29.55,WSW,247,3.5,5.0,76,0.00,,,0.03,Rainwise IP-100,2013-11-08 22:59:00,
2013-11-08 18:04:00,34.6,28.0,29.55,ENE,67,0.0,4.0,76,0.00,,,0.03,Rainwise IP-100,2013-11-08 23:04:00,
2013-11-08 18:09:00,34.7,28.0,29.55,West,270,3.0,5.0,75,0.00,,,0.03,Rainwise IP-100,2013-11-08 23:09:00,
2013-11-08 18:14:00,34.8,28.0,29.55,North,360,1.2,4.0,73,0.00,,,0.03,Rainwise IP-100,2013-11-08 23:14:00,
2013-11-08 18:19:00,34.9,26.0,29.55,SSW,202,2.6,5.0,72,0.00,,,0.03,Rainwise IP-100,2013-11-08 23:19:00,
2013-11-08 18:24:00,34.9,26.0,29.55,WSW,247,3.5,4.0,72,0.00,,,0.03,Rainwise IP-100,2013-11-08 23:24:00,
2013-11-08 18:29:00,34.8,26.0,29.55,SW,225,0.0,4.0,72,0.00,,,0.03,Rainwise IP-100,2013-11-08 23:29:00,
2013-11-08 18:34:00,34.8,26.0,29.56,SW,225,1.6,3.0,72,0.00,,,0.03,Rainwise IP-100,2013-11-08 23:34:00,
2013-11-08 18:39:00,34.8,26.0,29.56,West,270,0.0,4.0,71,0.00,,,0.03,Rainwise IP-100,2013-11-08 23:39:00,
2013-11-08 18:44:00,35.0,26.0,29.56,WNW,292,3.0,5.0,70,0.00,,,0.03,Rainwise IP-100,2013-11-08 23:44:00,
2013-11-08 18:49:00,35.0,26.0,29.56,SW,225,1.9,8.0,70,0.00,,,0.03,Rainwise IP-100,2013-11-08 23:49:00,
2013-11-08 18:54:00,34.8,26.0,29.56,West,270,0.0,4.0,71,0.00,,,0.03,Rainwise IP-100,2013-11-08 23:54:00,
2013-11-08 18:59:00,34.7,26.0,29.57,SW,225,2.1,3.0,71,0.00,,,0.03,Rainwise IP-100,2013-11-08 23:59:00,
2013-11-08 19:04:00,34.8,26.0,29.57,SW,225,3.5,4.0,72,0.00,,,0.03,Rainwise IP-100,2013-11-09 00:04:00,
2013-11-08 19:09:00,35.0,26.0,29.57,SSW,202,3.3,5.0,71,0.00,,,0.03,Rainwise IP-100,2013-11-09 00:09:00,
2013-11-08 19:15:00,34.8,26.0,29.57,SSW,202,3.3,4.0,71,0.00,,,0.03,Rainwise IP-100,2013-11-09 00:15:00,
2013-11-08 19:20:00,34.5,28.0,29.57,SW,225,1.2,4.0,73,0.00,,,0.03,Rainwise IP-100,2013-11-09 00:20:00,
2013-11-08 19:25:00,34.5,28.0,29.57,SW,225,2.1,4.0,73,0.00,,,0.03,Rainwise IP-100,2013-11-09 00:25:00,
2013-11-08 19:30:00,34.8,26.0,29.57,SW,225,3.5,4.0,71,0.00,,,0.03,Rainwise IP-100,2013-11-09 00:30:00,
2013-11-08 19:35:00,35.1,26.0,29.57,SW,225,0.0,7.0,70,0.00,,,0.03,Rainwise IP-100,2013-11-09 00:35:00,
2013-11-08 19:40:00,34.9,26.0,29.57,SW,225,0.0,3.0,71,0.00,,,0.03,Rainwise IP-100,2013-11-09 00:40:00,
2013-11-08 19:45:00,34.8,26.0,29.58,WSW,247,0.0,3.0,71,0.00,,,0.03,Rainwise IP-100,2013-11-09 00:45:00,
2013-11-08 19:50:00,34.9,26.0,29.57,NW,315,3.0,3.0,70,0.00,,,0.03,Rainwise IP-100,2013-11-09 00:50:00,
2013-11-08 19:55:00,35.0,26.0,29.58,SSE,157,1.2,4.0,69,0.00,,,0.03,Rainwise IP-100,2013-11-09 00:55:00,
2013-11-08 20:00:00,35.2,26.0,29.58,South,180,2.1,3.0,68,0.00,,,0.03,Rainwise IP-100,2013-11-09 01:00:00,
2013-11-08 20:05:00,35.3,26.0,29.58,ESE,112,0.0,3.0,68,0.00,,,0.03,Rainwise IP-100,2013-11-09 01:05:00,
2013-11-08 20:10:00,35.3,26.0,29.58,West,270,3.5,3.5,68,0.00,,,0.03,Rainwise IP-100,2013-11-09 01:10:00,
2013-11-08 20:15:00,35.4,26.0,29.59,ENE,67,0.0,4.0,68,0.00,,,0.03,Rainwise IP-100,2013-11-09 01:15:00,
2013-11-08 20:20:00,35.5,26.0,29.59,NNE,22,0.0,3.0,67,0.00,,,0.03,Rainwise IP-100,2013-11-09 01:20:00,
2013-11-08 20:25:00,35.5,26.0,29.59,NNE,22,0.0,4.0,66,0.00,,,0.03,Rainwise IP-100,2013-11-09 01:25:00,
2013-11-08 20:31:00,35.5,26.0,29.59,South,180,0.0,8.0,66,0.00,,,0.03,Rainwise IP-100,2013-11-09 01:31:00,
2013-11-08 20:36:00,35.5,26.0,29.59,SW,225,1.6,3.0,66,0.00,,,0.03,Rainwise IP-100,2013-11-09 01:36:00,
2013-11-08 20:41:00,35.6,26.0,29.59,West,270,2.1,3.0,66,0.00,,,0.03,Rainwise IP-100,2013-11-09 01:41:00,
2013-11-08 20:46:00,35.5,26.0,29.59,ENE,67,1.6,4.0,66,0.00,,,0.03,Rainwise IP-100,2013-11-09 01:46:00,
2013-11-08 20:51:00,35.6,26.0,29.59,NW,315,1.2,8.0,65,0.00,,,0.03,Rainwise IP-100,2013-11-09 01:51:00,
2013-11-08 20:56:00,35.7,24.0,29.60,North,360,4.2,4.2,64,0.00,,,0.03,Rainwise IP-100,2013-11-09 01:56:00,
2013-11-08 21:01:00,35.7,24.0,29.60,SE,135,0.0,7.0,64,0.00,,,0.03,Rainwise IP-100,2013-11-09 02:01:00,
2013-11-08 21:06:00,35.7,24.0,29.60,WSW,247,0.0,5.0,64,0.00,,,0.03,Rainwise IP-100,2013-11-09 02:06:00,
2013-11-08 21:11:00,35.7,24.0,29.61,SSE,157,3.0,4.0,64,0.00,,,0.03,Rainwise IP-100,2013-11-09 02:11:00,
2013-11-08 21:16:00,35.7,24.0,29.61,NE,45,0.0,8.0,63,0.00,,,0.03,Rainwise IP-100,2013-11-09 02:16:00,
2013-11-08 21:21:00,35.8,24.0,29.61,East,90,2.8,6.0,63,0.00,,,0.03,Rainwise IP-100,2013-11-09 02:21:00,
2013-11-08 21:26:00,35.9,24.0,29.60,NNE,22,0.0,8.0,64,0.00,,,0.03,Rainwise IP-100,2013-11-09 02:26:00,
2013-11-08 21:31:00,35.9,24.0,29.60,SSE,157,2.6,5.0,63,0.00,,,0.03,Rainwise IP-100,2013-11-09 02:31:00,
2013-11-08 21:36:00,35.9,24.0,29.60,West,270,2.1,7.0,61,0.00,,,0.03,Rainwise IP-100,2013-11-09 02:36:00,
2013-11-08 21:41:00,35.9,24.0,29.60,West,270,1.2,4.0,60,0.00,,,0.03,Rainwise IP-100,2013-11-09 02:41:00,
2013-11-08 21:47:00,35.9,24.0,29.61,East,90,0.0,6.0,61,0.00,,,0.03,Rainwise IP-100,2013-11-09 02:47:00,
2013-11-08 21:52:00,36.0,24.0,29.61,NNW,337,1.6,10.0,62,0.00,,,0.03,Rainwise IP-100,2013-11-09 02:52:00,
2013-11-08 21:57:00,35.9,24.0,29.61,SSE,157,0.0,10.0,61,0.00,,,0.03,Rainwise IP-100,2013-11-09 02:57:00,
2013-11-08 22:02:00,35.9,24.0,29.61,NW,315,0.0,4.0,60,0.00,,,0.03,Rainwise IP-100,2013-11-09 03:02:00,
2013-11-08 22:07:00,35.9,24.0,29.61,NNW,337,0.0,7.0,60,0.00,,,0.03,Rainwise IP-100,2013-11-09 03:07:00,
2013-11-08 22:12:00,35.9,24.0,29.61,North,360,7.2,7.2,61,0.00,,,0.03,Rainwise IP-100,2013-11-09 03:12:00,
2013-11-08 22:17:00,35.9,24.0,29.61,ENE,67,3.0,8.0,62,0.00,,,0.03,Rainwise IP-100,2013-11-09 03:17:00,
2013-11-08 22:22:00,35.8,24.0,29.61,WSW,247,4.9,5.0,61,0.00,,,0.03,Rainwise IP-100,2013-11-09 03:22:00,
2013-11-08 22:27:00,35.8,24.0,29.60,NE,45,1.2,6.0,61,0.00,,,0.03,Rainwise IP-100,2013-11-09 03:27:00,
2013-11-08 22:32:00,35.8,24.0,29.61,NNE,22,3.3,3.3,60,0.00,,,0.03,Rainwise IP-100,2013-11-09 03:32:00,
2013-11-08 22:37:00,35.8,24.0,29.60,West,270,2.6,12.0,60,0.00,,,0.03,Rainwise IP-100,2013-11-09 03:37:00,
2013-11-08 22:42:00,35.9,24.0,29.60,NE,45,0.0,4.0,62,0.00,,,0.03,Rainwise IP-100,2013-11-09 03:42:00,
2013-11-08 22:47:00,35.9,24.0,29.61,NNW,337,3.7,8.0,60,0.00,,,0.03,Rainwise IP-100,2013-11-09 03:47:00,
2013-11-08 22:52:00,35.9,23.0,29.61,NNE,22,2.8,6.0,59,0.00,,,0.03,Rainwise IP-100,2013-11-09 03:52:00,
2013-11-08 22:57:00,35.8,23.0,29.61,South,180,2.1,5.0,59,0.00,,,0.03,Rainwise IP-100,2013-11-09 03:57:00,
2013-11-08 23:03:00,35.8,23.0,29.61,NNE,22,2.1,6.0,58,0.00,,,0.03,Rainwise IP-100,2013-11-09 04:03:00,
2013-11-08 23:08:00,35.8,23.0,29.61,NNW,337,1.9,4.0,58,0.00,,,0.03,Rainwise IP-100,2013-11-09 04:08:00,
2013-11-08 23:13:00,35.7,23.0,29.61,North,360,4.7,9.0,58,0.00,,,0.03,Rainwise IP-100,2013-11-09 04:13:00,
2013-11-08 23:18:00,35.7,23.0,29.61,SE,135,0.0,7.0,58,0.00,,,0.03,Rainwise IP-100,2013-11-09 04:18:00,
2013-11-08 23:23:00,35.7,23.0,29.61,SW,225,4.4,5.0,58,0.00,,,0.03,Rainwise IP-100,2013-11-09 04:23:00,
2013-11-08 23:28:00,35.7,23.0,29.61,West,270,6.8,8.0,58,0.00,,,0.03,Rainwise IP-100,2013-11-09 04:28:00,
2013-11-08 23:33:00,35.7,23.0,29.62,North,360,1.2,9.0,58,0.00,,,0.03,Rainwise IP-100,2013-11-09 04:33:00,
2013-11-08 23:38:00,35.8,23.0,29.61,NNE,22,3.0,8.0,59,0.00,,,0.03,Rainwise IP-100,2013-11-09 04:38:00,
2013-11-08 23:43:00,35.8,23.0,29.61,NNE,22,3.3,7.0,58,0.00,,,0.03,Rainwise IP-100,2013-11-09 04:43:00,
2013-11-08 23:48:00,35.8,23.0,29.61,North,360,2.3,9.0,57,0.00,,,0.03,Rainwise IP-100,2013-11-09 04:48:00,
2013-11-08 23:53:00,35.8,23.0,29.61,WNW,292,2.3,10.0,58,0.00,,,0.03,Rainwise IP-100,2013-11-09 04:53:00,
2013-11-08 23:58:00,35.8,23.0,29.61,SE,135,1.4,4.0,57,0.00,,,0.03,Rainwise IP-100,2013-11-09 04:58:00,